GFSNGP_con_lsi_096.txt.gz
Lid_Strength_Index
10 10 10 11 11 11 12 11 14 12 11 9 7 7 6 4 4 5 4 4 3 3 3 2 2 1 1 1 1 0 1 1 1 1 1 1 1 1 0 0 0 -0 1 1
13 10 11 12 12 12 12 11 12 11 11 6 6 5 5 5 5 5 4 4 3 3 2 2 2 2 1 2 1 1 1 2 1 1 1 1 1 1 1 1 1 1 1 0
15 12 12 15 12 12 11 10 11 12 9 6 6 6 6 5 5 5 4 4 3 3 2 2 2 2 2 2 1 2 2 1 1 1 1 1 1 1 1 1 1 1 1 1
14 13 18 12 8 9 10 9 8 8 7 6 6 5 4 4 4 4 4 3 3 3 3 3 3 3 3 3 3 2 2 2 2 1 1 1 1 1 1 1 1 1 1 1
16 15 13 11 10 9 10 10 7 7 6 6 5 5 5 3 3 3 3 3 3 4 4 4 3 4 4 5 4 4 4 3 2 2 1 1 1 1 1 1 1 1 1 1
15 18 18 12 8 6 7 12 7 7 6 6 6 9 7 4 3 3 3 3 4 4 4 4 4 4 5 6 6 5 5 4 2 2 1 1 1 1 0 1 1 1 1 1
15 16 12 8 7 6 14 12 6 6 6 6 7 6 4 4 5 4 4 4 4 5 5 4 4 4 5 5 6 5 5 5 5 3 2 1 1 1 1 1 1 1 1 1
14 16 17 7 7 11 8 6 5 5 5 6 5 6 5 6 6 5 6 6 6 6 6 5 4 4 5 5 5 5 6 6 5 5 4 2 1 1 1 1 1 1 1 1
12 11 8 6 6 5 4 5 5 5 4 6 7 7 7 7 7 7 7 7 6 7 6 6 5 4 6 6 6 6 6 6 6 6 5 4 3 2 2 2 2 2 2 2
10 8 7 6 4 4 4 4 4 4 5 6 7 7 8 7 7 8 7 8 7 7 6 6 6 5 6 6 5 6 7 7 6 6 6 5 5 4 3 2 2 2 2 2
9 7 6 5 5 4 4 4 4 4 5 6 7 8 8 8 8 8 9 9 9 10 10 9 8 7 6 6 6 7 7 7 7 6 6 6 5 5 4 3 2 2 2 2
11 7 7 6 4 4 5 6 6 6 6 5 6 8 9 10 9 9 10 11 10 10 10 9 9 9 8 7 7 8 8 8 7 7 6 5 5 5 7 7 7 8 7 5
7 4 4 4 4 4 5 5 5 5 5 7 8 9 10 11 11 10 12 12 13 13 13 12 12 11 10 10 9 9 8 8 8 8 7 7 6 6 7 6 8 7 8 8
4 5 6 5 6 5 4 4 5 5 6 8 9 9 11 11 13 13 13 13 13 14 14 14 13 13 11 11 11 11 10 11 10 9 9 8 7 6 6 6 6 6 7 7
5 5 5 5 4 5 5 6 6 7 9 10 10 11 11 13 14 14 14 15 15 15 15 14 14 14 12 12 12 12 10 11 11 10 9 9 8 8 8 7 6 6 5 7
5 5 5 5 6 6 6 6 8 10 10 11 11 12 13 13 15 16 16 16 17 17 15 14 14 13 12 11 12 11 11 11 11 11 11 10 9 8 8 8 8 7 6 5
6 6 6 6 7 6 6 7 9 11 11 11 12 13 14 15 17 17 17 16 16 15 14 14 14 14 12 12 12 11 10 11 12 11 12 11 11 10 9 9 9 8 7 7
5 5 5 6 6 6 7 9 10 10 11 11 12 14 16 17 18 18 18 17 16 15 15 15 15 14 13 12 11 12 11 11 11 11 11 11 10 10 9 8 8 8 7 7
5 6 6 6 6 7 8 10 10 11 11 12 14 16 17 17 19 18 18 18 17 18 18 16 15 14 13 12 11 10 11 10 9 9 8 10 7 9 9 8 7 7 6 7
6 6 6 6 7 8 9 10 10 11 12 13 15 16 18 19 19 19 19 18 18 18 17 16 15 14 13 10 11 8 9 8 5 4 5 7 8 8 8 9 7 7 5 6
6 7 7 7 8 9 10 10 11 12 13 13 16 18 19 19 19 19 20 20 19 18 17 16 16 15 12 9 7 6 5 3 3 3 3 4 4 5 5 5 5 4 4 4
6 7 7 8 9 10 10 10 11 12 14 15 16 18 19 20 20 20 19 20 18 18 16 16 16 16 14 13 9 9 8 7 6 5 5 4 3 3 4 4 4 3 2 2
6 6 7 8 10 10 10 11 12 13 14 15 17 19 20 20 20 21 22 19 19 18 17 17 17 17 16 12 11 11 11 10 10 9 9 8 7 6 6 6 5 5 4 4
6 6 6 7 9 10 12 12 12 13 14 15 16 17 19 20 20 20 19 19 19 19 19 18 17 16 16 14 14 14 13 13 12 12 12 13 11 10 9 10 10 9 9 9
6 6 6 7 9 10 11 11 12 14 14 14 15 16 18 18 20 20 20 20 19 19 19 18 18 17 16 16 15 15 16 15 15 14 14 14 13 13 12 12 12 12 11 12
6 7 7 7 7 8 9 11 13 14 15 15 15 15 16 17 19 19 20 20 20 20 20 19 18 18 17 17 16 16 16 16 16 16 15 15 15 15 14 14 14 14 13 13
7 9 8 8 7 7 8 10 12 13 14 14 15 15 15 16 18 19 20 20 20 20 20 20 19 19 18 17 17 17 17 16 16 16 16 16 16 15 15 15 15 14 15 14

GFSNGP_con_lsi_102.txt.gz
Lid_Strength_Index
11 10 10 10 10 10 12 11 14 12 11 9 8 7 6 5 5 5 5 5 4 4 3 3 3 2 2 2 1 1 1 1 1 1 1 1 1 1 1 1 1 1 1 1
13 10 10 11 10 9 9 9 10 10 11 7 6 6 6 6 6 6 5 5 4 3 3 3 2 2 2 2 2 1 2 2 1 1 1 1 1 1 1 1 1 1 2 2
15 10 11 15 11 10 9 8 9 11 8 6 8 7 6 6 6 5 5 4 4 3 3 3 2 2 2 2 1 2 2 2 2 2 2 2 1 2 1 2 2 2 2 2
15 13 19 10 7 7 8 8 7 7 7 7 6 5 5 5 5 5 4 4 4 3 3 2 2 2 2 2 2 3 3 2 2 2 3 3 3 2 2 1 2 2 2 2
17 16 12 10 8 9 10 10 8 8 8 7 6 6 6 4 4 4 4 3 3 3 2 2 3 3 2 3 3 4 4 3 3 3 3 4 3 4 3 2 2 2 2 2
15 18 19 12 8 6 7 13 7 7 7 7 6 10 7 4 4 4 3 3 3 3 3 4 3 4 4 4 4 4 4 3 2 2 3 3 3 3 3 3 2 2 2 2
16 17 13 7 7 6 14 13 7 7 6 6 8 7 5 4 4 3 3 3 4 5 5 4 5 5 6 6 6 6 5 4 3 3 3 3 3 4 4 4 3 2 2 2
14 16 17 7 7 11 9 6 6 6 5 6 5 5 4 4 4 4 4 5 5 6 6 6 6 7 8 9 7 6 6 6 4 4 3 3 3 4 4 4 5 4 2 3
13 13 7 6 7 5 5 6 5 5 5 5 5 5 4 4 4 5 5 6 6 7 8 9 10 11 12 11 10 10 8 8 6 4 4 4 4 4 5 6 6 6 4 3
10 8 7 6 5 5 5 5 4 4 4 4 5 5 5 5 6 6 7 7 8 10 11 13 13 12 12 12 11 11 11 9 7 6 5 4 4 5 5 6 6 6 5 3
9 7 7 6 5 5 5 4 5 4 4 4 5 5 5 6 8 8 8 9 10 12 14 14 13 13 12 12 11 11 11 10 9 8 7 6 5 6 6 6 6 6 4 3
11 7 7 7 5 5 5 5 4 4 4 4 5 5 7 8 8 9 10 11 14 14 15 15 14 14 13 12 11 12 11 10 9 9 7 6 6 6 7 8 9 9 9 7
7 5 6 5 5 4 4 4 4 4 5 5 5 7 8 9 10 10 13 15 15 15 15 15 14 15 14 11 10 11 11 10 9 10 9 9 7 7 8 7 8 8 9 9
5 6 7 6 6 4 3 3 3 4 4 5 8 8 10 12 12 14 15 16 15 15 16 15 15 15 13 11 11 11 11 11 11 10 9 9 9 8 7 7 7 6 8 8
4 4 4 4 3 4 4 4 5 5 6 8 9 10 12 14 16 16 16 16 16 16 16 16 16 15 14 12 12 12 12 12 11 11 10 10 10 9 8 7 7 6 5 7
4 4 4 5 5 5 5 5 6 7 8 10 11 12 13 15 16 16 16 17 18 18 17 17 16 15 15 13 12 12 11 11 12 11 11 11 11 11 10 9 8 7 6 6
5 6 6 6 6 6 6 6 7 9 10 12 13 14 16 17 18 18 18 18 18 18 17 17 17 16 15 13 12 11 11 10 11 11 11 11 11 11 11 10 9 8 6 5
4 4 5 5 6 6 6 8 9 10 12 13 13 16 17 18 19 19 19 18 18 17 18 17 17 16 15 13 11 8 9 10 10 10 10 11 11 11 11 10 9 9 8 7
4 5 5 5 5 7 8 9 9 10 11 13 16 17 18 18 19 19 19 19 18 20 19 18 16 16 15 13 11 7 8 8 7 8 10 11 11 11 11 10 9 8 8 8
5 5 5 6 7 8 9 9 10 11 12 14 16 17 19 19 19 19 19 19 19 19 18 17 17 16 16 13 11 6 5 4 4 6 8 9 10 11 10 11 9 8 8 7
6 6 6 8 8 9 9 9 11 12 13 15 17 18 19 20 19 20 20 20 19 18 18 17 17 17 15 15 11 10 9 6 6 5 7 9 9 9 9 9 9 8 8 7
5 7 9 8 9 9 10 10 11 12 13 15 16 17 19 20 20 20 19 20 18 18 18 18 18 17 16 15 13 13 11 11 8 7 6 5 6 7 8 8 8 8 7 6
6 8 8 8 9 10 10 11 12 12 14 15 17 18 19 20 20 21 22 20 19 19 18 18 17 17 17 15 15 15 15 14 13 11 10 9 8 7 6 6 6 6 7 6
6 6 6 8 9 10 11 11 12 12 13 14 15 17 18 20 20 19 19 20 20 19 18 18 18 17 16 16 16 16 16 16 16 14 14 13 10 11 11 9 8 8 6 5
6 6 6 7 8 9 10 11 12 13 12 13 15 15 17 18 19 19 19 20 20 19 19 18 18 18 16 17 18 17 17 17 17 16 15 15 14 14 13 13 13 11 9 8
6 7 6 6 6 7 7 8 11 13 13 13 14 15 15 16 17 18 19 19 20 20 20 19 18 18 18 18 18 18 18 18 18 17 17 16 15 15 15 16 14 15 13 12
7 8 7 7 7 6 7 8 8 10 12 13 13 13 14 15 16 17 18 19 20 20 19 19 19 18 18 19 19 19 18 18 18 18 18 18 18 17 16 16 17 16 15 15

GFSNGP_con_lsi_105.txt.gz
Lid_Strength_Index
12 11 11 11 12 11 12 12 16 13 13 10 9 9 8 7 7 6 6 6 7 7 7 6 6 6 5 4 4 4 4 4 4 4 4 4 3 3 3 1 1 2 2 2
14 11 11 13 11 11 11 11 11 11 11 8 7 6 7 8 7 7 7 7 6 6 6 6 6 5 4 4 3 4 4 4 4 4 4 4 4 4 4 4 2 2 2 2
16 12 12 15 12 11 11 10 10 13 10 7 8 8 8 8 8 7 7 7 7 7 6 5 5 4 4 4 4 4 4 4 3 4 4 4 4 4 4 4 4 2 3 2
16 14 20 12 8 8 9 9 9 9 9 8 8 8 8 7 8 7 7 7 7 6 6 5 4 4 5 4 5 5 5 5 4 4 4 4 5 5 6 5 4 4 3 2
17 18 14 11 10 10 12 12 9 10 9 8 7 7 8 6 6 7 7 6 6 5 5 5 5 5 6 7 6 6 6 5 5 4 5 5 5 5 4 4 5 4 3 2
15 18 20 12 9 7 8 15 8 8 9 8 8 11 9 6 6 6 6 6 5 5 5 6 7 8 8 8 8 8 7 7 7 7 7 6 4 4 4 4 4 3 4 4
16 17 14 9 8 7 16 15 8 7 8 8 9 9 8 6 6 6 5 5 5 5 7 8 9 9 9 10 10 10 10 10 9 8 8 8 7 5 4 4 4 5 5 5
15 17 18 7 8 12 10 7 7 7 8 8 8 7 7 7 7 6 6 5 7 8 9 9 9 10 10 11 11 11 11 11 10 9 8 8 7 5 4 4 6 6 7 7
13 14 9 7 8 7 6 7 7 7 7 7 7 7 7 7 6 6 6 7 9 10 10 10 10 11 13 13 12 12 12 11 11 9 8 7 7 5 4 5 7 7 8 8
12 9 8 7 6 6 6 6 6 6 7 7 8 8 7 6 6 8 8 10 10 11 12 12 13 13 13 13 12 12 11 11 11 11 9 8 7 5 5 5 7 7 8 8
11 9 8 7 7 5 5 5 6 6 7 7 8 7 7 7 8 9 11 11 12 12 14 14 14 14 13 13 13 12 11 12 12 10 10 9 8 6 5 6 7 7 8 8
13 8 9 8 6 6 7 7 7 7 7 6 6 7 8 9 11 12 13 12 14 15 15 15 14 14 14 14 13 12 12 12 12 11 10 9 9 8 8 7 8 9 10 9
8 6 7 7 6 6 7 6 5 6 6 7 7 8 9 12 13 12 13 15 16 16 15 16 16 15 15 14 13 11 13 11 11 11 11 11 10 9 8 8 8 9 10 10
5 6 8 7 8 7 6 5 4 5 6 7 8 10 12 13 14 14 16 16 16 16 17 16 16 16 14 14 13 12 12 11 11 11 12 11 10 9 8 8 8 9 10 10
6 6 7 6 6 6 5 6 7 7 7 9 11 13 14 15 16 16 16 16 17 17 17 17 17 16 15 15 14 13 12 12 11 10 10 11 10 10 9 8 8 8 7 9
5 5 6 7 7 6 7 7 8 8 9 12 14 14 15 16 17 17 17 17 18 19 18 17 17 16 16 15 13 12 11 11 11 11 10 11 11 10 10 10 8 7 7 7
6 7 7 8 7 7 7 7 8 10 12 14 14 15 16 17 18 18 18 18 18 18 17 17 18 17 15 13 12 11 10 9 12 12 12 11 11 11 10 10 10 8 7 7
4 6 7 7 7 7 8 8 10 12 13 13 15 16 17 18 19 19 19 18 18 18 18 18 17 16 15 14 12 10 8 8 9 10 10 11 11 11 11 11 11 10 8 8
5 6 6 6 7 8 9 10 12 12 13 14 16 17 18 18 19 18 18 19 19 20 19 18 16 16 16 14 13 8 6 6 6 7 9 11 11 11 11 11 10 10 9 8
5 6 6 7 8 9 11 11 12 13 13 15 16 18 19 19 19 19 19 20 20 19 18 17 17 17 16 15 13 11 8 7 5 8 8 10 11 11 11 12 10 9 9 9
6 7 8 9 9 10 11 12 12 13 14 15 17 18 19 19 19 20 20 21 20 19 18 17 17 17 16 16 14 13 12 9 8 7 8 9 10 10 10 9 9 9 8 8
8 8 9 9 10 11 12 12 12 13 14 15 17 18 19 20 20 20 19 21 20 18 17 17 17 17 17 16 15 15 14 12 11 10 10 8 8 9 9 9 9 8 8 8
8 8 9 10 11 11 12 13 13 13 15 15 17 18 19 20 20 21 22 20 19 18 18 18 17 17 17 16 16 16 16 14 14 14 13 11 11 10 10 9 8 7 7 7
6 8 9 9 10 11 13 13 13 13 14 15 16 17 18 19 19 19 19 19 19 19 18 18 18 17 17 17 17 18 17 16 16 15 15 15 13 12 11 11 11 10 8 7
6 7 8 8 9 11 12 13 14 14 14 15 15 16 17 17 18 19 19 19 19 19 19 18 18 18 18 18 18 18 18 18 18 17 16 16 16 15 13 13 13 13 12 10
7 8 8 8 8 9 9 11 14 14 15 15 15 15 16 16 17 17 18 19 19 19 19 19 18 18 19 19 18 18 19 19 19 19 18 17 18 17 16 15 13 13 13 12
9 9 9 9 8 8 9 10 10 12 13 14 15 15 15 16 17 17 17 18 19 19 19 19 19 18 18 19 19 19 18 19 19 19 19 19 18 17 17 16 15 15 15 15

GFSNGP_con_lsi_111.txt.gz
Lid_Strength_Index
13 12 12 13 12 13 14 13 16 14 14 11 10 9 8 9 9 9 8 8 8 8 8 7 7 7 6 6 6 6 6 6 7 7 7 7 7 7 6 5 4 3 3 3
15 12 12 13 12 12 12 12 12 12 13 9 9 10 9 9 8 8 8 7 7 7 7 7 7 7 6 6 6 6 6 6 6 6 6 7 6 5 5 5 5 5 4 3
17 13 13 16 13 12 12 11 12 14 12 10 10 9 10 10 9 8 8 8 7 7 7 7 7 7 7 7 7 7 7 7 7 7 7 6 5 5 6 6 6 6 7 7
17 16 20 14 10 9 11 11 10 10 10 8 9 9 9 9 9 9 8 7 8 8 8 8 8 7 8 8 8 8 8 9 8 7 7 7 7 7 6 7 8 8 7 7
17 17 15 12 11 12 13 13 10 11 10 9 8 8 9 7 7 8 8 8 8 8 8 8 8 8 9 9 9 9 10 9 8 8 8 8 9 10 10 9 9 8 7 6
15 19 20 13 10 8 9 16 9 9 9 9 9 12 11 6 6 7 7 8 8 9 8 9 9 9 10 10 10 10 9 9 9 9 10 11 11 11 10 10 9 7 6 6
16 17 15 10 8 7 16 14 9 8 8 9 10 9 8 8 8 8 8 8 9 9 10 10 10 10 11 11 10 10 10 10 10 11 12 11 11 11 11 10 9 8 8 7
15 17 18 8 9 13 10 9 8 8 8 8 9 9 9 8 8 8 9 9 9 10 10 10 10 11 11 11 11 11 10 11 12 12 12 12 12 12 11 9 9 9 9 9
14 14 10 8 8 7 8 8 7 8 7 8 9 9 9 9 9 9 10 10 10 11 11 10 10 11 12 12 11 12 13 13 13 12 12 12 11 10 10 9 9 9 8 7
12 10 9 8 7 7 6 6 6 6 7 7 9 9 9 9 10 10 10 11 11 11 11 12 12 12 12 13 13 14 14 14 14 13 12 11 10 10 10 10 9 9 9 7
11 10 8 7 7 6 5 6 6 6 7 8 8 9 10 11 11 11 11 10 11 12 14 14 13 14 14 14 14 15 15 14 14 12 11 10 10 10 9 9 8 9 8 7
14 10 9 8 6 6 7 7 8 8 8 8 9 10 11 12 11 11 12 12 14 15 15 15 15 15 15 15 14 15 15 14 12 11 11 10 10 10 10 10 9 10 10 8
9 7 7 7 6 6 8 8 8 8 9 10 11 11 12 12 12 12 14 15 16 16 16 16 16 16 15 15 14 13 14 13 12 12 11 11 11 11 12 9 9 10 10 8
8 8 8 8 9 8 8 8 8 9 10 11 11 11 12 13 13 15 15 16 16 16 17 17 16 16 15 15 15 15 14 12 12 12 12 11 12 11 11 11 10 10 10 8
7 6 7 8 8 8 8 9 10 10 10 10 11 12 13 15 16 16 16 16 17 17 17 17 17 17 16 16 16 14 13 12 11 11 11 11 11 11 11 11 10 9 8 9
6 7 9 9 8 9 9 9 10 11 11 12 13 14 15 15 16 17 17 17 18 19 18 17 17 17 16 16 15 14 14 11 11 11 11 11 11 11 11 11 10 10 8 8
7 9 8 9 9 9 10 10 10 11 12 13 14 15 16 17 18 18 18 18 18 18 17 17 18 17 16 15 14 14 12 11 11 9 9 11 11 11 11 10 10 9 7 8
7 8 9 9 9 9 10 9 10 11 13 14 15 16 17 19 19 19 18 18 18 18 17 18 17 16 16 15 14 14 11 9 8 10 10 11 11 11 11 10 10 9 9 9
7 8 8 8 9 9 10 11 12 13 14 15 16 18 18 18 18 19 19 19 19 19 19 17 16 17 16 15 15 13 12 10 8 9 10 11 11 11 11 11 9 9 9 8
8 8 8 9 9 10 11 12 13 14 14 15 17 18 19 19 19 19 19 20 18 18 17 17 17 17 17 16 15 14 14 12 10 11 10 10 10 11 11 11 9 9 8 8
10 10 11 11 12 12 12 12 14 15 15 16 18 19 19 19 19 19 20 20 18 17 17 17 17 18 17 17 16 16 15 14 12 13 12 11 9 10 10 10 9 9 8 8
10 10 11 11 13 13 13 13 14 15 16 17 18 18 19 20 20 20 18 19 18 18 17 17 17 17 17 17 17 17 16 15 13 14 14 13 12 11 9 9 10 9 7 7
9 9 10 11 13 14 13 13 14 15 16 17 18 18 19 19 19 20 20 18 18 18 18 18 18 17 18 18 17 18 18 16 15 15 14 14 14 13 13 12 10 8 7 8
9 9 10 11 12 14 15 14 13 15 15 16 17 17 18 19 19 18 18 18 18 18 18 17 18 18 17 18 18 19 18 17 16 15 15 14 14 14 13 13 13 11 10 9
9 9 9 10 12 14 14 14 14 14 15 16 17 17 17 17 18 18 18 18 18 18 18 17 18 18 18 17 18 19 19 18 17 17 16 16 15 15 14 13 13 13 12 12
10 11 11 10 11 12 13 14 15 15 16 16 17 17 17 17 18 18 18 18 18 18 19 18 18 18 18 18 18 18 19 19 19 19 18 18 17 16 15 14 14 13 13 13
10 10 11 11 11 11 12 13 14 15 15 16 17 17 17 17 18 18 18 19 19 19 19 18 18 18 18 18 18 18 18 19 19 19 19 19 18 18 17 17 16 14 13 13

GFSNGP_con_lsi_114.txt.gz
Lid_Strength_Index
14 12 12 13 13 13 14 14 16 15 14 12 10 9 9 9 9 9 8 8 8 8 8 8 7 7 7 6 6 5 6 6 6 5 5 5 5 5 4 4 4 4 4 4
16 12 13 14 13 13 13 13 13 13 13 10 9 9 9 9 8 8 8 7 7 7 7 7 7 7 6 6 6 6 7 7 6 6 5 5 5 5 5 5 5 5 5 4
17 14 14 17 14 13 13 12 12 15 12 10 10 9 10 9 9 8 8 8 8 7 7 7 7 7 7 7 7 7 7 7 6 6 6 6 6 6 6 7 6 6 5 5
18 16 20 15 11 10 12 10 10 10 10 9 9 9 8 8 9 8 8 8 8 8 7 7 7 7 7 7 7 7 8 8 7 7 7 7 7 8 8 7 7 6 6 6
20 19 16 13 11 12 13 13 10 10 10 9 8 8 9 7 7 8 8 8 8 8 7 8 7 7 8 8 8 9 9 9 8 8 8 9 9 8 8 9 9 9 9 9
15 18 21 14 10 8 9 15 9 9 9 9 9 12 10 6 6 7 7 7 8 8 8 8 8 9 9 10 10 10 10 9 9 9 9 8 9 9 9 10 11 10 10 9
16 17 15 11 8 7 16 15 9 8 8 9 10 9 8 7 8 7 7 8 8 8 9 9 9 10 10 11 11 10 10 10 9 9 10 10 10 10 11 12 11 11 11 9
15 17 18 8 9 13 11 9 8 8 7 8 8 8 8 8 8 8 9 8 9 10 10 10 10 11 12 12 11 10 10 11 11 11 11 12 12 12 12 12 11 10 9 8
13 14 11 8 9 8 8 8 7 8 7 7 8 8 8 8 8 9 9 9 10 11 11 11 11 11 12 11 11 11 12 13 13 13 12 12 13 13 13 10 10 10 9 9
12 11 10 9 7 6 6 7 7 6 6 7 7 7 8 9 9 10 10 11 11 12 13 12 11 11 13 13 13 14 15 15 14 14 13 12 12 12 10 10 10 10 9 9
13 11 10 8 7 6 6 6 6 6 7 7 8 8 9 10 11 11 12 12 12 13 13 13 13 14 14 14 15 15 15 15 14 13 12 12 11 10 10 9 9 9 10 9
15 11 10 9 7 6 6 7 7 8 8 8 9 10 11 12 12 12 13 12 12 13 15 15 15 15 15 15 15 15 15 15 13 12 12 11 11 10 9 10 10 10 11 10
10 8 8 7 7 6 7 7 7 8 9 10 10 11 12 13 13 12 13 13 15 15 15 16 16 16 15 15 15 15 16 14 14 13 12 12 12 12 12 10 10 10 10 10
7 8 8 8 9 8 8 8 8 9 10 10 11 12 13 13 13 13 15 15 15 16 17 17 16 16 15 15 16 16 15 14 13 12 12 12 12 12 11 11 11 10 9 10
7 7 8 7 8 8 8 9 10 11 11 11 12 12 13 13 15 16 15 16 16 17 17 17 16 16 16 16 16 15 15 14 12 11 11 11 11 11 11 10 11 10 8 10
7 7 9 10 9 9 10 11 11 11 11 12 13 13 13 15 16 17 17 17 18 19 18 17 17 17 16 16 15 15 14 14 11 10 10 10 10 12 11 11 11 10 9 8
7 9 8 9 9 9 10 10 11 11 12 13 13 14 16 17 17 18 18 18 18 18 17 17 18 17 15 15 16 15 14 13 11 9 10 10 10 11 11 11 10 9 8 7
7 8 9 9 9 10 10 10 11 11 13 13 15 16 17 18 19 19 18 18 18 18 17 17 17 16 16 16 15 14 13 11 10 9 10 11 11 11 11 10 9 9 8 8
7 8 8 9 10 10 11 11 12 13 14 15 17 19 18 18 18 19 19 19 18 18 18 17 16 17 17 16 15 15 14 12 11 11 10 11 10 10 10 9 9 9 9 8
9 9 9 10 10 11 12 12 14 15 15 16 17 18 18 19 19 19 18 18 18 18 16 16 17 17 17 16 16 15 13 12 12 12 12 11 10 10 10 10 10 9 9 8
10 11 11 12 13 12 12 13 14 15 16 17 18 18 19 19 19 18 19 19 18 17 16 17 17 18 17 17 16 16 14 13 13 13 13 12 11 10 10 8 9 9 8 8
11 12 12 12 13 13 13 14 14 15 16 17 18 18 18 20 19 18 18 19 18 17 17 17 18 17 17 17 17 17 15 15 14 14 14 14 13 13 12 10 8 8 8 8
10 11 11 12 14 14 13 13 15 15 17 17 18 18 19 18 18 20 21 18 18 18 17 17 18 17 17 17 17 18 17 16 15 15 14 14 14 14 13 13 12 10 8 8
10 10 11 12 13 14 14 14 14 15 16 17 18 18 19 19 19 18 18 18 18 18 18 18 18 17 17 17 18 18 18 18 17 16 15 14 14 14 14 13 13 12 11 11
9 9 10 12 14 14 14 14 15 15 16 17 17 17 18 18 19 18 18 18 18 18 18 18 18 18 17 18 18 19 19 19 18 18 18 16 15 15 15 14 14 13 13 13
11 11 11 11 13 13 14 14 15 16 16 18 17 17 17 17 18 18 18 19 19 19 19 18 18 18 18 18 18 18 19 19 19 18 18 18 16 16 15 15 14 14 13 13
11 11 11 11 11 12 13 14 15 16 16 17 18 17 17 18 18 18 19 19 19 19 19 19 19 19 19 19 19 18 19 19 19 19 19 19 18 17 16 16 15 15 14 14

GFSNGP_con_lsi_117.txt.gz
Lid_Strength_Index
12 11 11 11 11 11 12 11 13 11 12 9 8 7 6 6 6 6 6 5 6 5 5 4 4 3 3 3 3 3 4 4 3 3 2 2 2 2 2 2 2 2 2 2
13 12 11 12 11 10 10 10 11 10 11 7 6 6 6 6 6 6 6 6 5 5 4 4 4 4 3 3 3 3 4 4 4 4 3 3 3 3 3 3 3 3 3 3
15 12 12 14 12 11 10 10 10 12 9 7 7 7 6 6 6 6 6 5 5 4 4 4 4 4 4 4 4 4 4 4 4 4 5 4 4 4 4 4 3 3 3 3
14 13 17 12 9 9 10 9 8 8 8 7 7 6 5 5 5 5 5 5 4 4 4 4 4 4 4 4 4 5 5 5 5 5 5 5 5 5 4 4 4 4 5 5
16 15 13 11 9 10 11 11 8 8 8 7 6 6 6 4 4 4 4 4 4 4 4 4 4 4 5 5 5 5 5 6 6 6 6 6 6 6 5 6 6 6 6 6
15 17 18 11 8 7 7 12 8 7 8 7 6 10 7 4 4 4 4 4 4 4 4 4 4 4 5 6 6 7 7 6 6 6 7 7 7 7 7 7 8 8 8 8
14 16 13 8 7 6 14 12 7 7 6 6 8 6 5 3 3 3 3 4 4 4 4 5 5 6 7 7 8 7 7 8 8 7 7 8 8 9 10 10 11 11 11 10
14 16 17 7 8 11 8 6 6 6 6 6 5 5 4 4 3 4 4 4 4 5 6 6 6 7 8 8 8 8 8 8 8 9 10 11 12 12 12 12 12 12 12 11
11 11 8 6 7 5 5 6 6 5 5 5 5 5 4 4 4 4 5 5 5 7 7 7 7 8 9 9 8 9 11 12 13 13 13 13 13 12 12 11 11 11 10 9
10 9 7 6 5 5 5 5 5 4 4 4 5 4 4 4 5 5 6 6 7 8 9 9 9 9 9 11 12 14 15 15 14 14 13 12 12 11 11 11 11 10 9 9
10 8 7 6 6 5 5 4 4 4 4 4 4 5 6 6 6 7 7 8 8 9 10 10 10 11 12 14 14 15 15 15 14 14 13 12 11 10 10 9 9 10 9 9
10 8 8 7 6 5 5 5 4 5 5 5 6 7 7 8 8 9 9 10 11 10 10 13 13 14 15 14 14 15 15 15 14 13 14 13 12 11 10 11 10 11 11 10
8 7 7 5 4 4 4 5 5 5 6 7 7 8 9 10 10 11 11 11 11 13 14 15 16 16 14 14 15 15 16 15 14 14 14 12 12 12 13 11 10 10 11 11
6 6 7 5 5 5 5 5 6 6 7 8 9 9 10 11 11 11 11 12 14 15 16 16 16 16 15 15 15 16 16 15 14 14 12 12 11 11 11 11 11 10 9 10
5 4 5 4 5 6 6 7 8 8 9 10 10 11 11 12 12 13 14 15 15 16 17 17 16 16 16 16 16 15 15 14 13 12 12 11 10 10 11 11 11 10 9 8
5 5 6 7 7 7 8 8 9 10 10 10 10 11 12 12 14 15 15 16 18 19 18 17 17 17 16 15 16 15 14 13 12 12 10 9 10 11 11 11 10 10 9 8
6 6 6 7 7 7 8 8 9 10 10 11 12 12 13 15 15 16 17 17 18 18 16 17 17 16 15 16 16 15 13 12 12 10 9 10 10 11 10 10 10 9 9 7
5 6 6 7 8 8 9 9 9 10 11 12 12 15 16 17 18 18 18 18 18 17 16 16 16 16 16 16 15 15 12 11 10 10 9 10 10 10 8 8 8 8 7 7
5 6 7 8 8 9 9 9 11 12 13 14 16 17 17 17 18 18 18 17 17 18 17 16 15 16 16 16 15 14 12 12 11 11 11 11 9 8 8 9 9 9 9 8
8 8 8 8 8 8 10 11 13 14 15 16 16 17 18 18 18 18 17 18 17 17 16 16 16 17 16 16 16 14 13 12 12 12 12 11 10 8 7 10 9 9 8 8
8 9 10 11 11 11 13 13 14 15 15 16 17 18 18 18 17 17 19 19 18 16 17 16 16 16 16 16 16 16 14 13 13 14 14 13 11 10 9 8 8 8 8 7
8 9 11 11 12 12 13 14 14 15 16 17 17 18 18 18 18 19 18 19 18 17 17 17 17 16 17 17 17 17 17 15 14 14 14 14 14 13 12 12 11 10 8 7
9 9 10 12 13 13 13 14 15 16 17 17 18 18 19 18 19 20 20 18 18 17 17 17 17 17 17 17 17 17 17 17 16 15 15 14 14 14 14 13 13 12 11 9
9 10 11 11 12 13 14 14 15 16 16 17 17 18 18 19 19 18 17 18 18 18 18 18 18 17 17 17 18 18 18 18 17 16 15 15 14 14 14 14 14 13 13 12
9 10 11 12 13 13 14 14 15 16 16 17 17 17 17 17 18 18 18 18 18 18 18 18 18 18 18 17 18 18 18 18 18 17 16 16 15 15 15 14 14 14 13 13
9 10 11 12 12 13 13 14 16 16 16 17 17 17 17 16 17 17 17 17 17 18 18 18 18 18 17 18 18 18 18 18 18 18 17 16 16 15 15 15 14 14 14 14
10 10 11 11 11 12 13 14 15 16 16 16 17 16 16 16 16 16 17 17 16 16 16 16 17 17 17 18 17 17 18 18 18 18 18 17 16 15 15 15 14 14 13 13

GFSNGP_con_lsi_123.txt.gz
Lid_Strength_Index
11 11 9 9 10 9 11 11 12 11 11 9 7 7 6 5 4 4 4 3 3 3 2 2 2 1 1 1 1 0 1 1 1 0 -0 -0 0 -0 -0 -0 -0 -0 -0 -0
12 10 9 11 9 9 9 9 9 9 9 6 5 4 5 5 4 4 4 4 3 3 2 3 2 2 1 1 1 1 1 1 1 1 1 1 0 0 0 0 0 0 0 1
15 10 10 13 10 9 8 8 8 9 7 5 6 5 5 5 4 4 4 3 3 3 2 2 2 1 1 1 1 1 1 1 1 1 2 1 1 1 0 0 0 1 0 1
15 11 18 10 8 7 8 7 6 6 6 6 5 5 4 4 4 4 4 3 3 2 2 1 1 1 1 1 1 2 2 2 2 2 3 2 2 2 0 0 1 1 1 0
15 14 11 10 9 10 8 8 6 6 6 5 5 4 5 3 3 3 3 2 2 2 1 1 1 1 1 2 2 2 3 3 3 3 3 3 3 2 1 1 2 2 3 3
12 15 15 10 7 5 6 11 6 5 6 6 5 8 8 4 3 3 2 2 2 1 1 1 1 1 2 3 3 3 3 3 3 3 3 3 3 3 4 4 5 5 6 7
13 14 11 7 6 5 11 12 6 5 5 5 6 5 4 3 3 2 2 2 1 2 2 2 2 2 3 3 4 3 3 3 3 3 3 4 5 6 8 9 10 11 11 11
11 13 16 6 6 9 8 5 5 5 5 5 5 4 3 3 3 2 2 2 2 3 3 2 2 3 4 4 3 3 3 4 5 6 7 9 11 12 12 12 12 12 12 11
10 11 6 5 6 4 5 5 5 5 4 4 4 4 3 3 3 3 3 3 3 3 3 3 3 3 4 4 4 5 7 8 8 10 13 13 14 13 12 11 12 12 12 11
9 7 6 6 4 4 4 4 4 4 3 3 4 3 3 3 3 3 3 3 3 4 4 5 4 4 5 6 7 9 12 13 13 13 13 13 13 12 11 11 11 11 11 10
9 7 6 5 5 4 4 4 4 3 3 4 3 4 4 4 4 4 4 4 4 5 5 6 6 6 8 11 12 14 14 14 14 14 14 14 13 12 12 10 9 10 10 10
12 6 6 6 4 4 4 4 4 4 4 4 4 4 4 5 4 4 5 6 6 6 7 7 8 11 12 13 13 15 15 15 15 15 14 14 13 12 10 10 10 11 11 11
6 5 5 5 4 4 5 5 4 4 4 5 4 4 5 5 5 6 6 6 7 7 8 11 13 14 13 14 14 15 15 15 14 14 13 13 13 11 11 9 9 10 11 11
4 5 6 5 6 5 5 5 5 4 4 4 5 5 5 6 6 7 8 8 8 10 13 15 15 15 15 14 15 15 15 13 13 13 12 12 11 10 9 9 9 9 9 10
5 5 5 4 4 5 5 5 5 5 6 5 5 6 6 8 8 9 8 10 12 15 16 16 16 16 15 14 15 15 14 12 12 13 12 11 10 8 8 8 8 8 8 8
5 5 4 5 5 6 6 6 6 6 6 6 7 8 9 9 9 9 11 13 16 18 17 15 16 15 14 14 14 13 12 12 12 12 10 8 7 8 9 9 8 7 7 7
5 6 5 6 6 6 6 6 6 7 7 8 10 10 11 11 11 13 15 16 16 16 15 15 16 15 14 14 14 12 12 11 12 9 8 8 8 8 7 7 8 7 5 6
4 4 5 5 6 6 6 7 8 9 10 11 11 12 12 13 15 16 17 17 17 16 15 15 15 14 14 14 14 13 11 11 11 9 8 8 9 8 7 8 8 7 6 5
5 5 5 5 6 7 8 9 10 10 11 12 12 13 14 16 17 17 17 17 17 17 17 15 15 15 15 15 14 13 13 12 12 10 10 10 9 8 9 9 8 6 4 5
5 5 5 6 7 9 10 11 11 12 12 12 13 15 16 17 17 17 17 17 17 17 16 15 14 16 16 15 15 14 14 13 13 13 13 12 11 10 10 11 10 7 7 6
6 6 7 9 10 10 11 11 12 12 13 13 16 17 18 17 17 17 18 18 17 16 15 15 15 16 16 16 16 15 14 13 13 14 14 14 14 13 13 12 10 9 8 9
6 7 8 10 11 11 12 12 13 14 15 16 17 17 18 18 17 17 16 17 17 17 16 16 15 16 16 17 16 16 15 14 14 14 14 14 14 14 14 13 12 12 11 11
6 6 8 11 12 13 13 14 15 15 16 17 17 17 18 17 16 17 17 16 15 16 14 14 15 16 16 14 15 16 16 14 15 15 14 14 14 14 14 14 13 13 13 13
6 6 8 9 11 13 15 15 15 15 16 16 16 16 16 16 16 15 15 15 16 15 14 15 14 16 14 12 13 15 16 15 15 14 14 14 14 14 14 14 14 14 13 13
7 7 8 10 12 13 14 14 14 15 15 16 15 15 16 15 16 15 15 14 15 14 12 14 15 14 12 13 13 14 15 15 14 13 14 14 14 14 14 14 14 14 14 14
7 8 9 10 11 12 12 13 14 14 14 14 14 14 14 14 15 14 13 14 14 14 11 11 12 12 12 12 13 13 13 14 15 14 14 13 13 13 14 14 14 14 14 13
7 9 8 10 10 11 12 13 14 14 13 13 13 13 13 14 14 14 15 14 14 13 13 12 12 12 12 12 13 13 13 13 14 14 14 14 14 14 14 15 14 14 14 14